Location: *
(50.3194°N, 7.1067°E)
Time: 16:41:23
(UTC+00:00)

Cosmos 1535 Rocket - Pass Details

Date: 22 September 2019
Orbit: 949 x 1004 km, 83.0° (Epoch: 14 October)

Event Time Altitude Azimuth Distance (km) Brightness Sun altitude
Rises 20:42:01 0° 349° (N) 3,741 8.3 -28.9°
Reaches altitude 10° 20:44:34 10° 349° (NNW) 2,783 7.5 -29.2°
Maximum altitude 20:50:58 80° 263° (W) 1,015 4.5 -29.9°
Enters shadow 20:51:17 77° 225° (SW) 1,022 4.4 -29.9°
